This is the latest recevied weather packets stored in our database for station/object OH2HCY-3. If no packets are shown the sender has not sent any weather packets the latest 10 day(s).
| Time | Temp. | Humidity | Pressure | Rain* | Wind** | Luminosity | Snow |
|---|---|---|---|---|---|---|---|
| 1787999540 | 18.33° C | 68% | 1014 hPa | - | - | - | - |
| 1787998503 | 18.33° C | 67% | 1014 hPa | - | - | - | - |
| 1787996483 | 18.89° C | 65% | 1014.4 hPa | - | - | - | - |
| 1787994228 | 18.33° C | 66% | 1014.4 hPa | - | - | - | - |
| 1787993113 | 18.33° C | 67% | 1014.6 hPa | - | - | - | - |
| 1787992133 | 17.78° C | 67% | 1014.7 hPa | - | - | - | - |
| 1787990986 | 17.78° C | 69% | 1014.7 hPa | - | - | - | - |
| 1787989851 | 17.78° C | 69% | 1014.9 hPa | - | - | - | - |
| 1787988886 | 17.78° C | 70% | 1015 hPa | - | - | - | - |
| 1787987737 | 17.22° C | 71% | 1015.1 hPa | - | - | - | - |
| 1787987734 | 17.22° C | 71% | 1015.1 hPa | - | - | - | - |
| 1787984408 | 16.67° C | 73% | 1015.6 hPa | - | - | - | - |
| 1787983273 | 16.67° C | 73% | 1015.5 hPa | - | - | - | - |
| 1787982208 | 16.67° C | 74% | 1015.6 hPa | - | - | - | - |
| 1787981153 | 16.67° C | 73% | 1015.7 hPa | - | - | - | - |
| 1787978968 | 16.67° C | 76% | 1016.2 hPa | - | - | - | - |
| 1787976848 | 16.11° C | 76% | 1016.6 hPa | - | - | - | - |
| 1787975773 | 16.11° C | 76% | 1016.7 hPa | - | - | - | - |
| 1787973743 | 15.56° C | 79% | 1017 hPa | - | - | - | - |
| 1787971424 | 16.11° C | 79% | 1017.4 hPa | - | - | - | - |
| 1787970319 | 16.11° C | 79% | 1017.7 hPa | - | - | - | - |
| 1787969298 | 15.56° C | 80% | 1018 hPa | - | - | - | - |
| 1787967003 | 15.56° C | 83% | 1018.6 hPa | - | - | - | - |
| 1787965983 | 15.56° C | 83% | 1018.8 hPa | - | - | - | - |
| 1787964794 | 15.56° C | 83% | 1019 hPa | - | - | - | - |
* Rain since midnight (hover to see other rain measurements)
** Current wind speed in m/s (hover to see current wind gust speed)